TimeMST,TemperatureF,Dew PointF,Humidity,Sea Level PressureIn,VisibilityMPH,Wind Direction,Wind SpeedMPH,Gust SpeedMPH,PrecipitationIn,Events,Conditions,WindDirDegrees,DateUTC
12:15 AM,30.7,27.7,88,30.41,10.0,Calm,Calm,-,N/A,,Clear,0,2013-11-27 07:15:00
12:35 AM,30.2,27.1,88,30.41,10.0,Calm,Calm,-,N/A,,Clear,0,2013-11-27 07:35:00
12:55 AM,29.5,27.0,90,30.40,10.0,Calm,Calm,-,N/A,,Clear,0,2013-11-27 07:55:00
1:15 AM,29.1,26.6,90,30.39,10.0,Calm,Calm,-,N/A,,Clear,0,2013-11-27 08:15:00
1:35 AM,29.5,27.1,91,30.39,10.0,Calm,Calm,-,N/A,,Clear,0,2013-11-27 08:35:00
1:55 AM,29.3,26.4,89,30.39,10.0,Calm,Calm,-,N/A,,Clear,0,2013-11-27 08:55:00
2:15 AM,28.4,26.6,93,30.39,10.0,Calm,Calm,-,N/A,,Clear,0,2013-11-27 09:15:00
2:35 AM,28.2,26.6,94,30.39,10.0,Calm,Calm,-,N/A,,Clear,0,2013-11-27 09:35:00
2:55 AM,27.5,25.7,93,30.38,10.0,Calm,Calm,-,N/A,,Clear,0,2013-11-27 09:55:00
3:15 AM,28.2,25.3,89,30.37,10.0,Calm,Calm,-,N/A,,Clear,0,2013-11-27 10:15:00
3:35 AM,28.4,24.4,85,30.37,10.0,Calm,Calm,-,N/A,,Clear,0,2013-11-27 10:35:00
3:55 AM,29.1,23.9,81,30.37,10.0,Calm,Calm,-,N/A,,Clear,0,2013-11-27 10:55:00
4:15 AM,29.3,23.9,80,30.37,10.0,North,3.5,-,N/A,,Clear,350,2013-11-27 11:15:00
4:35 AM,28.8,23.9,82,30.36,10.0,Calm,Calm,-,N/A,,Clear,0,2013-11-27 11:35:00
4:55 AM,28.4,23.5,82,30.36,10.0,NW,3.5,-,N/A,,Clear,320,2013-11-27 11:55:00
5:15 AM,27.7,23.2,83,30.36,10.0,Calm,Calm,-,N/A,,Clear,0,2013-11-27 12:15:00
5:35 AM,25.5,23.0,90,30.36,-9999.0,Calm,Calm,-,N/A,,Unknown,0,2013-11-27 12:35:00
5:55 AM,27.0,23.0,85,30.35,10.0,Calm,Calm,-,N/A,,Clear,0,2013-11-27 12:55:00
6:15 AM,25.3,22.8,90,30.36,10.0,Calm,Calm,-,N/A,,Clear,0,2013-11-27 13:15:00
6:35 AM,26.4,23.5,89,30.36,10.0,Calm,Calm,-,N/A,,Clear,0,2013-11-27 13:35:00
6:55 AM,26.1,23.2,89,30.35,10.0,Calm,Calm,-,N/A,,Clear,0,2013-11-27 13:55:00
7:15 AM,24.8,23.9,96,30.36,10.0,Calm,Calm,-,N/A,,Clear,0,2013-11-27 14:15:00
7:35 AM,24.8,24.3,98,30.36,10.0,Calm,Calm,-,N/A,,Clear,0,2013-11-27 14:35:00
7:55 AM,25.9,23.5,91,30.37,10.0,North,4.6,-,N/A,,Clear,360,2013-11-27 14:55:00
8:15 AM,26.2,24.3,92,30.37,10.0,NNE,4.6,-,N/A,,Clear,20,2013-11-27 15:15:00
8:35 AM,26.2,25.5,97,30.36,10.0,North,5.8,-,N/A,,Clear,360,2013-11-27 15:35:00
8:55 AM,27.0,26.2,97,30.36,10.0,North,4.6,-,N/A,,Clear,10,2013-11-27 15:55:00
9:15 AM,28.0,26.6,94,30.36,10.0,Calm,Calm,-,N/A,,Clear,0,2013-11-27 16:15:00
9:35 AM,27.5,26.6,96,30.36,10.0,NE,4.6,-,N/A,,Clear,40,2013-11-27 16:35:00
9:55 AM,28.0,25.7,91,30.35,10.0,NNE,4.6,-,N/A,,Clear,30,2013-11-27 16:55:00
10:15 AM,28.8,25.3,87,30.34,10.0,NNE,6.9,-,N/A,,Clear,30,2013-11-27 17:15:00
10:35 AM,29.7,25.3,84,30.33,10.0,NE,5.8,-,N/A,,Clear,50,2013-11-27 17:35:00
10:55 AM,30.2,25.0,81,30.32,10.0,NE,6.9,-,N/A,,Clear,50,2013-11-27 17:55:00
11:15 AM,31.5,25.3,78,30.31,10.0,NNE,5.8,-,N/A,,Clear,30,2013-11-27 18:15:00
11:35 AM,32.2,25.7,77,30.30,10.0,ENE,3.5,-,N/A,,Clear,60,2013-11-27 18:35:00
11:55 AM,32.7,26.1,76,30.29,10.0,ENE,5.8,-,N/A,,Clear,60,2013-11-27 18:55:00
12:15 PM,33.4,26.1,74,30.28,10.0,East,3.5,-,N/A,,Clear,80,2013-11-27 19:15:00
12:35 PM,34.0,26.1,73,30.27,10.0,Calm,Calm,-,N/A,,Clear,0,2013-11-27 19:35:00
12:55 PM,34.3,26.6,73,30.26,10.0,Calm,Calm,-,N/A,,Clear,0,2013-11-27 19:55:00
1:15 PM,35.1,26.8,72,30.25,10.0,Calm,Calm,-,N/A,,Clear,0,2013-11-27 20:15:00
1:35 PM,34.9,27.0,73,30.25,10.0,ENE,3.5,-,N/A,,Clear,70,2013-11-27 20:35:00
1:55 PM,34.9,26.8,72,30.25,10.0,Calm,Calm,-,N/A,,Clear,0,2013-11-27 20:55:00
2:15 PM,34.9,26.6,72,30.24,10.0,Calm,Calm,-,N/A,,Clear,0,2013-11-27 21:15:00
2:35 PM,35.2,27.0,72,30.23,10.0,Calm,Calm,-,N/A,,Clear,0,2013-11-27 21:35:00
2:55 PM,35.4,27.1,72,30.23,10.0,Calm,Calm,-,N/A,,Clear,0,2013-11-27 21:55:00
3:15 PM,35.8,27.1,71,30.23,10.0,Calm,Calm,-,N/A,,Clear,0,2013-11-27 22:15:00
3:35 PM,35.6,27.1,71,30.23,10.0,Calm,Calm,-,N/A,,Clear,0,2013-11-27 22:35:00
3:55 PM,35.6,27.0,71,30.22,10.0,Calm,Calm,-,N/A,,Clear,0,2013-11-27 22:55:00
4:15 PM,35.1,26.8,72,30.23,10.0,Calm,Calm,-,N/A,,Clear,0,2013-11-27 23:15:00
4:35 PM,34.9,26.8,72,30.23,10.0,Calm,Calm,-,N/A,,Clear,0,2013-11-27 23:35:00
4:55 PM,34.2,26.6,74,30.23,10.0,Calm,Calm,-,N/A,,Clear,0,2013-11-27 23:55:00
5:15 PM,33.3,26.1,75,30.23,10.0,Calm,Calm,-,N/A,,Clear,0,2013-11-28 00:15:00
5:35 PM,33.3,26.4,76,30.23,10.0,Calm,Calm,-,N/A,,Clear,0,2013-11-28 00:35:00
5:55 PM,33.3,26.6,77,30.23,10.0,Calm,Calm,-,N/A,,Clear,0,2013-11-28 00:55:00
6:15 PM,32.4,26.6,79,30.23,10.0,Calm,Calm,-,N/A,,Clear,0,2013-11-28 01:15:00
6:35 PM,32.5,26.2,78,30.23,10.0,Calm,Calm,-,N/A,,Clear,0,2013-11-28 01:35:00
6:55 PM,32.4,25.5,76,30.23,10.0,Calm,Calm,-,N/A,,Clear,0,2013-11-28 01:55:00
7:15 PM,32.2,25.5,76,30.23,10.0,Calm,Calm,-,N/A,,Clear,0,2013-11-28 02:15:00
7:35 PM,32.0,25.3,76,30.23,10.0,Calm,Calm,-,N/A,,Clear,0,2013-11-28 02:35:00
7:55 PM,32.0,25.3,76,30.23,10.0,Calm,Calm,-,N/A,,Clear,0,2013-11-28 02:55:00
8:15 PM,31.5,25.2,78,30.22,10.0,NNW,3.5,-,N/A,,Clear,340,2013-11-28 03:15:00
8:35 PM,31.3,25.2,78,30.22,10.0,Calm,Calm,-,N/A,,Clear,0,2013-11-28 03:35:00
8:55 PM,30.7,24.6,78,30.22,10.0,Calm,Calm,-,N/A,,Clear,0,2013-11-28 03:55:00
9:15 PM,30.2,24.6,80,30.22,10.0,Calm,Calm,-,N/A,,Clear,0,2013-11-28 04:15:00
9:35 PM,30.2,23.9,77,30.22,10.0,Calm,Calm,-,N/A,,Clear,0,2013-11-28 04:35:00
9:55 PM,29.3,24.8,83,30.23,10.0,Calm,Calm,-,N/A,,Clear,0,2013-11-28 04:55:00
10:15 PM,30.0,23.0,75,30.22,10.0,Calm,Calm,-,N/A,,Clear,0,2013-11-28 05:15:00
10:35 PM,29.7,23.0,76,30.22,10.0,Calm,Calm,-,N/A,,Clear,0,2013-11-28 05:35:00
10:55 PM,29.1,24.6,83,30.23,10.0,Calm,Calm,-,N/A,,Clear,0,2013-11-28 05:55:00
11:15 PM,28.2,24.3,85,30.23,10.0,Calm,Calm,-,N/A,,Clear,0,2013-11-28 06:15:00
11:35 PM,27.3,23.7,86,30.22,10.0,Calm,Calm,-,N/A,,Clear,0,2013-11-28 06:35:00
11:55 PM,27.3,22.5,82,30.21,-9999.0,North,4.6,-,N/A,,Clear,360,2013-11-28 06:55:00